Regional Weather Roundup
Issued by NWS

Home | Current Version | Previous Version | Text Only | Print | Product List | Glossary Off
Versions: 1 2 3 4 5 6 7 8 9 10 11 12 13 14 15 16 17 18 19 20 21 22 23 24 25 26 27 28 29 30 31 32 33 34 35 36 37 38 39 40 41 42 43 44 45 46 47 48 49 50

000
ASUS43 KOAX 250510
RWRNE

WEATHER ROUNDUP FOR NEBRASKA
NATIONAL WEATHER SERVICE OMAHA NE
1100 PM CST SAT JAN 24 2015

NOTES: SATELLITE DATA IS BEING USED TO AUGMENT CLOUD COVER ABOVE
       12000 FEET.
       "FAIR" INDICATES FEW OR NO CLOUDS BELOW 12,000 FEET WITH NO
       SIGNIFICANT WEATHER AND/OR OBSTRUCTIONS TO VISIBILITY.

  * THESE STATIONS DO NOT REPORT WEATHER SUCH AS RAIN...SNOW OR FOG.

NEZ001>004-019>022-054>056-250600-
NEBRASKA PANHANDLE

CITY           SKY/WX    TMP DP  RH WIND       PRES   REMARKS
SCOTTSBLUFF    MOCLDY    37  32  82 NW16      30.07R WCI  28
ALLIANCE       CLEAR     37  28  70 NW23G32   30.00R WCI  26
CHADRON        CLEAR     36  29  75 NW18      30.02R WCI  26
KIMBALL        CLOUDY    37  30  78 NW25G36   30.07S WCI  25
SIDNEY         MOCLDY    37  28  70 NW24G30   30.05R WCI  26
$$

NEZ057>060-069>072-079>082-250600-
SOUTHWEST NEBRASKA

CITY           SKY/WX    TMP DP  RH WIND       PRES   REMARKS
NORTH PLATTE   PTCLDY    39  33  79 W14       29.90R WCI  31
IMPERIAL       CLOUDY    43  28  55 NW26G36   29.97R
LEXINGTON      CLEAR     43  32  64 NW22G31   29.84R
MCCOOK         CLOUDY    45  33  63 NW25G35   29.90R
OGALLALA       CLEAR     39  32  76 NW21      29.97R WCI  29
$$

NEZ005>010-023>029-035>040-094-250600-
NORTH CENTRAL NEBRASKA

CITY           SKY/WX    TMP DP  RH WIND       PRES   REMARKS
VALENTINE      CLOUDY    42  32  67 NW28G46   29.83R
AINSWORTH      DRIZZLE   40  34  79 NW33G43   29.79R WCI  28
BROKEN BOW     CLOUDY    45  32  60 NW35G43   29.79R
O`NEILL        CLOUDY    41  36  81 NW30G41   29.71R
ORD            CLOUDY    44  34  67 NW30G37   29.73S
THEDFORD       CLOUDY    44  32  63 NW32G45   29.85R
$$

NEZ041-046>049-061>064-073>077-083>087-250600-
SOUTH CENTRAL NEBRASKA

CITY           SKY/WX    TMP DP  RH WIND       PRES   REMARKS
GRAND ISLAND   CLOUDY    45  35  68 NW18      29.74S
AURORA         MOCLDY    46  36  69 NW22G28   29.72S
HASTINGS       LGT RAIN  47  35  63 NW24G36   29.74S
HEBRON         MOCLDY    46  33  62 NW16      29.73R
HOLDREGE       PTCLDY    43  32  66 NW23G31   29.81R
KEARNEY *      PTCLDY    45  30  57 NW24G32   29.78S
YORK           MOCLDY    45  39  81 NW21G28   29.70R
$$

NEZ011>018-030>034-042>045-250600-
NORTHEAST NEBRASKA

CITY           SKY/WX    TMP DP  RH WIND       PRES   REMARKS
NORFOLK        CLOUDY    43  36  76 NW24G33   29.62S
ALBION         LGT RAIN  42  37  83 NW23G30   29.67S
BLAIR          CLOUDY    46  39  76 W18G26    29.59S
COLUMBUS *     CLOUDY    45  36  70 NW14G20   29.67R
FREMONT        CLOUDY    46  37  73 NW25G31   29.63R
TEKAMAH        CLOUDY    46  39  76 NW26G37   29.59R
WAYNE          DRIZZLE   41  38  89 NW21G28   29.63R
$$

NEZ050>053-065>068-078-088>093-250600-
SOUTHEAST NEBRASKA

CITY           SKY/WX    TMP DP  RH WIND       PRES   REMARKS
LINCOLN        MOCLDY    48  39  71 NW17      29.67R
OMAHA EPPLEY   CLOUDY    46  40  79 NW9       29.59F
BEATRICE       CLOUDY    45  40  83 W16       29.69R
FALLS CITY     LGT RAIN  45  41  86 W12       29.65F
NEBRASKA CITY  CLOUDY    45  40  82 W16       29.63S
PLATTSMOUTH    CLOUDY    45  40  83 W16       29.61S
$$

NEZ044-045-051>053-067-250600-
OMAHA AREA

CITY           SKY/WX    TMP DP  RH WIND       PRES   REMARKS
OMAHA EPPLEY   CLOUDY    46  40  79 NW9       29.59F
BLAIR          CLOUDY    46  39  76 W18G26    29.59S
FREMONT        CLOUDY    46  37  73 NW25G31   29.63R
MILLARD        CLOUDY    48  40  73 NW23G31   29.61R
OFFUTT AFB     CLOUDY    45  40  84 W7        29.60R
PLATTSMOUTH    CLOUDY    45  40  83 W16       29.61S
WAHOO          MOCLDY    46  36  68 NW22G33   29.63R
$$


USA.gov is the U.S. government's official web portal to all federal, state and local government web resources and services.